Regional Weather Roundup
Issued by NWS

Home | Current Version | Previous Version | Graphics & Text | Print | Product List | Glossary On
Versions: 1 2 3 4 5 6 7 8 9 10 11 12 13 14 15 16 17 18 19 20 21 22 23 24 25 26 27 28 29 30 31 32 33 34 35 36 37 38 39 40 41 42 43 44 45 46 47 48 49 50
000
ASUS43 KIND 301359
RWRIN

WEATHER ROUNDUP FOR INDIANA
NATIONAL WEATHER SERVICE INDIANAPOLIS IN
1000 AM EDT TUE JUN 30 2015

NOTE: "FAIR" INDICATES FEW OR NO CLOUDS BELOW 12,000 FEET WITH NO
SIGNIFICANT WEATHER AND/OR OBSTRUCTIONS TO VISIBILITY.

* - STATION DOES NOT REPORT WEATHER SUCH AS PRECIPITATION OR FOG.

+ - STATION NOT QUALITY CONTROLLED BY THE NATIONAL WEATHER SERVICE.
    USE DATA WITH CAUTION...ESPECIALLY DEWPOINT AND RELATIVE
    HUMIDITY OBSERVATIONS.

INZ001>003-010>013-019-020-301500-
NORTHWEST INDIANA

CITY           SKY/WX    TMP DP  RH WIND       PRES   REMARKS
GARY /AIRPORT/ SUNNY    N/A N/A N/A W8        29.83R
RENSSELAER +   SUNNY     68  64  88 W10       29.83S

$$

LMZ046-743>745-301500-
SOUTHERN LAKE MICHIGAN

STATION/POSITION TIME  TEMP    WIND        PRES    WAVE
                       AIR SEA DIR/SP/G            HT
                 (UTC) (F)     (DEG/KT/KT) (MB)    (FT)
BURNS HARBOR     1300   65     260/  6/  7 1010.5R
MICHIGAN CITY    1300   63     250/ 10/ 11   N/A
5NW MICH CITY    1300   63 65  290/  6/  8   N/A     1

$$

INZ004-005-014>016-021>024-301500-
NORTH CENTRAL INDIANA

CITY           SKY/WX    TMP DP  RH WIND       PRES   REMARKS
ELKHART        CLOUDY    64  64 100 CALM      29.82S FOG
GOSHEN         CLOUDY    64  62  93 S6        29.82R FOG
SOUTH BEND     CLOUDY    66  64  93 SW5       29.81S FOG

$$

INZ006>009-017-018-025>027-301500-
NORTHEAST INDIANA

CITY           SKY/WX    TMP DP  RH WIND       PRES   REMARKS
ANGOLA *+      CLOUDY    64  55  72 SE5       29.82F
FORT WAYNE     LGT RAIN  64  62  93 SW3       29.83S FOG

$$

INZ028-029-035-036-043>045-051>053-301500-
WEST CENTRAL INDIANA

CITY           SKY/WX    TMP DP  RH WIND       PRES   REMARKS
CRAWFORDSVL +  PTSUNNY   67  62  85 W6        29.86S
GREENCASTLE +  PTSUNNY   66  61  82 W5        29.87S
LAFAYETTE      MOSUNNY   68  64  87 W7        29.84R
TERRE HAUTE    MOSUNNY   73  67  81 VRB7      29.86S

$$

INZ030>032-037>040-046>048-054>057-064-065-301500-
CENTRAL INDIANA

CITY           SKY/WX    TMP DP  RH WIND       PRES   REMARKS
ANDERSON       PTSUNNY   68  63  83 CALM      29.86S
COLUMBUS       MOSUNNY   72  64  78 W12       29.88R
GREENWOOD *+   PTSUNNY   68  63  83 W6        29.87R
INDIANAPOLIS   LGT RAIN  67  63  87 W8        29.85S
-EAGLE CREEK   CLOUDY    68  64  87 W8        29.85S
KOKOMO *+      CLOUDY    66  61  82 W10       29.84R
MT COMFORT *+  PTSUNNY   68 N/A N/A SW3       29.87R
SHELBYVILLE    PTSUNNY   71  65  81 SW8       29.86S

$$

INZ033-034-041-042-049-050-058-059-301500-
EAST CENTRAL INDIANA

CITY           SKY/WX    TMP DP  RH WIND       PRES   REMARKS
MUNCIE         PTSUNNY   67  62  84 W9        29.84S

$$

INZ060-061-067>069-081>083-085>088-301500-
SOUTHWEST INDIANA

CITY           SKY/WX    TMP DP  RH WIND       PRES   REMARKS
EVANSVILLE     SUNNY     74  66  76 SW8       29.90R
HUNTINGBURG *+ SUNNY     73  66  78 S7        29.90R

$$

INZ062-063-066-070>080-084-089>092-301500-
SOUTH CENTRAL AND SOUTHEAST INDIANA

CITY           SKY/WX    TMP DP  RH WIND       PRES   REMARKS
BLOOMINGTON    MOSUNNY   72  66  81 SW9       29.87R
MADISON *+     CLOUDY    70  64  83 SW6       29.92S
SEYMOUR +      PTSUNNY   73  66  78 S7        29.88S

$$




USA.gov is the U.S. government's official web portal to all federal, state and local government web resources and services.